Total_Precipitation_Accumulation
0.00 0.00 0.00 0.00 0.00 0.00 0.00 0.00 0.00 0.00 0.00 0.00 0.00 0.00 0.00 0.00 0.00 0.00 0.00 0.00 0.00 0.00 0.00 0.00 0.00 0.00 0.00 0.00 0.00 0.01 0.03 0.12 0.09 0.17 0.53 0.11 0.10 0.06 0.03 0.08 0.11 0.17 0.15 0.21 0.07 0.09 0.06 0.04 0.04 0.01 0.00 0.01 0.00 0.00 0.00 0.00 0.00 0.00 0.00 0.00 0.00 0.00 0.01 0.01 0.04 0.02 0.01 0.01 0.01 0.00 0.01 0.01 0.01 0.02 0.04 0.03 0.04 0.03 0.05 0.10 0.09 0.15 0.14 0.16 0.10 0.12 0.07 0.08 0.17 0.10 0.13 0.10 0.09 0.12 0.09 0.09 0.09
0.00 0.00 0.00 0.00 0.00 0.00 0.00 0.00 0.00 0.00 0.00 0.00 0.00 0.00 0.00 0.00 0.00 0.00 0.00 0.00 0.00 0.00 0.00 0.00 0.00 0.00 0.00 0.00 0.00 0.00 0.01 0.04 0.01 0.05 0.22 0.17 0.09 0.06 0.15 0.30 0.46 0.33 0.25 0.14 0.09 0.07 0.08 0.08 0.07 0.01 0.01 0.02 0.00 0.00 0.00 0.00 0.00 0.00 0.00 0.03 0.00 0.01 0.01 0.01 0.02 0.00 0.00 0.00 0.00 0.01 0.01 0.02 0.02 0.02 0.04 0.05 0.03 0.04 0.03 0.11 0.19 0.20 0.15 0.10 0.13 0.11 0.06 0.10 0.15 0.09 0.09 0.07 0.08 0.06 0.06 0.07 0.08
0.00 0.00 0.00 0.00 0.00 0.00 0.00 0.00 0.00 0.00 0.00 0.00 0.00 0.00 0.00 0.00 0.00 0.00 0.00 0.00 0.00 0.00 0.00 0.00 0.00 0.00 0.00 0.00 0.00 0.05 0.40 0.09 0.04 0.08 0.23 0.17 0.12 0.35 0.26 0.46 0.34 0.34 0.30 0.27 0.12 0.06 0.10 0.08 0.09 0.03 0.04 0.02 0.01 0.00 0.00 0.00 0.00 0.00 0.00 0.02 0.00 0.00 0.00 0.03 0.00 0.00 0.00 0.00 0.01 0.02 0.03 0.05 0.03 0.06 0.04 0.05 0.03 0.03 0.04 0.08 0.17 0.19 0.12 0.13 0.13 0.14 0.11 0.15 0.14 0.11 0.15 0.10 0.08 0.08 0.06 0.06 0.03
0.00 0.00 0.00 0.00 0.00 0.00 0.00 0.00 0.00 0.00 0.00 0.00 0.00 0.00 0.00 0.00 0.00 0.00 0.00 0.00 0.00 0.00 0.00 0.00 0.01 0.00 0.00 0.01 0.03 0.00 0.06 0.09 0.07 0.03 0.21 0.18 0.11 0.23 0.29 0.40 0.26 0.33 0.33 0.27 0.18 0.15 0.09 0.10 0.09 0.07 0.05 0.01 0.01 0.01 0.00 0.00 0.00 0.00 0.00 0.01 0.01 0.00 0.01 0.00 0.01 0.00 0.01 0.01 0.01 0.03 0.06 0.10 0.08 0.06 0.10 0.08 0.03 0.04 0.07 0.06 0.10 0.14 0.11 0.14 0.17 0.06 0.07 0.13 0.09 0.16 0.12 0.05 0.03 0.04 0.03 0.02 0.03
0.00 0.00 0.00 0.00 0.00 0.00 0.00 0.00 0.00 0.00 0.00 0.00 0.00 0.00 0.00 0.00 0.00 0.00 0.00 0.00 0.00 0.00 0.00 0.00 0.00 0.00 0.00 0.02 0.01 0.07 0.07 0.07 0.08 0.08 0.06 0.08 0.06 0.20 0.47 0.67 0.59 0.45 0.24 0.27 0.18 0.15 0.17 0.11 0.05 0.17 0.06 0.04 0.03 0.01 0.01 0.01 0.00 0.00 0.00 0.00 0.00 0.00 0.00 0.00 0.00 0.01 0.01 0.02 0.04 0.06 0.08 0.11 0.11 0.07 0.08 0.06 0.04 0.04 0.03 0.03 0.05 0.07 0.05 0.04 0.03 0.01 0.03 0.03 0.04 0.05 0.02 0.02 0.02 0.02 0.03 0.01 0.02
0.00 0.00 0.00 0.00 0.00 0.00 0.00 0.00 0.00 0.00 0.00 0.00 0.00 0.00 0.00 0.00 0.00 0.00 0.00 0.00 0.00 0.00 0.00 0.00 0.01 0.01 0.02 0.03 0.14 0.08 0.07 0.12 0.03 0.08 0.06 0.23 0.14 0.38 0.55 0.59 0.39 0.31 0.30 0.37 0.28 0.21 0.26 0.07 0.06 0.12 0.11 0.13 0.07 0.11 0.01 0.01 0.00 0.00 0.00 0.00 0.01 0.00 0.00 0.00 0.01 0.02 0.03 0.06 0.08 0.09 0.07 0.12 0.08 0.12 0.12 0.11 0.07 0.07 0.06 0.07 0.05 0.03 0.04 0.06 0.06 0.02 0.04 0.02 0.01 0.01 0.00 0.01 0.04 0.04 0.00 0.01 0.01
0.00 0.00 0.00 0.00 0.00 0.00 0.00 0.00 0.00 0.00 0.00 0.00 0.00 0.00 0.00 0.00 0.00 0.00 0.00 0.00 0.00 0.00 0.00 0.00 0.00 0.01 0.09 0.02 0.02 0.04 0.04 0.05 0.07 0.10 0.09 0.14 0.21 0.45 0.51 0.32 0.26 0.42 0.47 0.29 0.17 0.15 0.23 0.04 0.08 0.15 0.14 0.14 0.16 0.14 0.07 0.03 0.01 0.01 0.00 0.00 0.03 0.02 0.01 0.02 0.02 0.04 0.05 0.09 0.10 0.09 0.10 0.09 0.07 0.09 0.15 0.15 0.08 0.08 0.11 0.04 0.04 0.05 0.07 0.06 0.05 0.04 0.03 0.02 0.01 0.01 0.01 0.02 0.01 0.00 0.01 0.01 0.02
0.00 0.00 0.00 0.00 0.00 0.00 0.00 0.00 0.00 0.00 0.00 0.00 0.00 0.00 0.00 0.00 0.00 0.00 0.00 0.00 0.00 0.00 0.00 0.00 0.00 0.00 0.71 0.01 0.30 0.04 0.04 0.03 0.08 0.04 0.04 0.16 0.50 0.52 0.41 0.29 0.29 0.64 0.34 0.29 0.18 0.13 0.39 0.06 0.04 0.04 0.09 0.15 0.12 0.26 0.17 0.10 0.03 0.03 0.01 0.01 0.01 0.01 0.04 0.03 0.02 0.04 0.07 0.11 0.12 0.07 0.09 0.12 0.06 0.06 0.11 0.06 0.15 0.06 0.07 0.04 0.02 0.11 0.06 0.03 0.03 0.03 0.03 0.02 0.01 0.01 0.02 0.02 0.00 0.00 0.01 0.03 0.00
0.00 0.00 0.00 0.00 0.00 0.00 0.00 0.00 0.00 0.00 0.00 0.00 0.00 0.00 0.00 0.00 0.00 0.00 0.00 0.00 0.00 0.00 0.00 0.00 0.00 0.11 0.45 0.11 0.25 0.16 0.13 0.12 0.05 0.05 0.09 0.34 0.64 0.61 0.73 0.20 0.45 0.44 0.43 0.46 0.25 0.26 0.21 0.06 0.04 0.03 0.04 0.03 0.11 0.15 0.15 0.12 0.06 0.04 0.02 0.01 0.01 0.01 0.02 0.03 0.04 0.06 0.07 0.09 0.11 0.20 0.11 0.08 0.05 0.05 0.04 0.08 0.16 0.09 0.06 0.05 0.03 0.08 0.03 0.03 0.03 0.05 0.03 0.03 0.02 0.04 0.02 0.01 0.01 0.00 0.00 0.00 0.00
0.00 0.00 0.00 0.00 0.00 0.00 0.00 0.00 0.00 0.00 0.00 0.00 0.00 0.00 0.00 0.00 0.00 0.00 0.00 0.00 0.00 0.00 0.00 0.00 0.00 0.02 0.10 0.71 0.20 0.28 0.36 0.25 0.24 0.21 0.24 0.44 1.16 1.25 0.81 1.06 0.38 0.68 0.63 0.61 0.42 0.31 0.25 0.48 0.04 0.03 0.04 0.01 0.04 0.13 0.14 0.12 0.07 0.01 0.02 0.01 0.01 0.01 0.02 0.05 0.03 0.04 0.06 0.07 0.11 0.12 0.10 0.05 0.05 0.04 0.03 0.05 0.10 0.18 0.06 0.03 0.02 0.06 0.03 0.03 0.03 0.04 0.01 0.02 0.02 0.03 0.02 0.01 0.00 0.00 0.00 0.00 0.00
0.00 0.00 0.00 0.00 0.00 0.00 0.00 0.00 0.00 0.00 0.00 0.00 0.00 0.00 0.00 0.00 0.00 0.00 0.00 0.00 0.00 0.00 0.00 0.00 0.01 0.02 0.03 0.37 0.52 0.28 0.54 0.26 0.22 0.49 0.51 0.55 1.01 1.16 1.93 0.98 0.71 0.65 0.92 0.77 0.80 0.49 0.30 0.56 0.36 0.05 0.07 0.08 0.04 0.05 0.15 0.18 0.18 0.06 0.00 0.01 0.00 0.06 0.05 0.04 0.03 0.07 0.07 0.09 0.09 0.08 0.16 0.05 0.06 0.05 0.06 0.07 0.10 0.07 0.02 0.04 0.04 0.07 0.04 0.02 0.03 0.01 0.01 0.01 0.01 0.01 0.01 0.00 0.00 0.00 0.00 0.00 0.00
0.00 0.00 0.00 0.00 0.00 0.00 0.00 0.00 0.00 0.00 0.00 0.00 0.00 0.00 0.00 0.00 0.00 0.00 0.00 0.00 0.00 0.00 0.01 0.00 0.05 0.00 0.15 0.14 0.34 0.95 0.67 0.55 0.98 0.55 0.61 1.09 0.88 0.59 0.87 0.50 0.45 0.82 0.81 1.31 0.68 0.55 0.59 0.56 0.64 0.63 0.19 0.16 0.17 0.15 0.33 0.26 0.21 0.15 0.03 0.02 0.02 0.03 0.03 0.02 0.05 0.12 0.05 0.10 0.05 0.05 0.07 0.05 0.11 0.06 0.04 0.03 0.05 0.04 0.04 0.05 0.10 0.10 0.04 0.03 0.05 0.02 0.02 0.02 0.02 0.01 0.00 0.00 0.00 0.00 0.00 0.00 0.00
0.00 0.00 0.00 0.00 0.00 0.00 0.00 0.00 0.00 0.00 0.00 0.00 0.00 0.00 0.00 0.00 0.00 0.00 0.00 0.00 0.00 0.00 0.00 0.00 0.00 0.00 0.58 0.22 0.34 0.63 0.80 0.93 0.63 0.84 0.76 1.00 0.65 0.59 0.62 0.46 0.87 0.91 0.67 0.84 0.53 0.44 0.39 0.43 0.40 0.49 0.50 0.29 0.30 0.30 0.25 0.22 0.10 0.12 0.15 0.06 0.08 0.08 0.04 0.06 0.09 0.08 0.08 0.05 0.03 0.04 0.06 0.06 0.05 0.06 0.04 0.04 0.02 0.03 0.03 0.06 0.06 0.06 0.03 0.02 0.02 0.03 0.01 0.00 0.00 0.00 0.00 0.00 0.00 0.00 0.00 0.00 0.00
0.00 0.00 0.00 0.00 0.00 0.00 0.00 0.00 0.00 0.00 0.00 0.00 0.00 0.00 0.00 0.00 0.00 0.00 0.00 0.00 0.00 0.00 0.00 0.00 0.00 0.04 0.43 0.15 0.79 0.79 0.74 0.55 0.33 0.40 0.46 0.99 0.71 0.55 0.69 0.55 1.48 1.19 1.14 0.70 0.47 0.37 0.36 0.36 0.46 0.41 0.68 0.65 0.80 0.45 0.21 0.19 0.23 0.14 0.19 0.32 0.17 0.10 0.10 0.14 0.14 0.07 0.07 0.02 0.05 0.07 0.09 0.06 0.09 0.05 0.06 0.07 0.04 0.06 0.03 0.03 0.05 0.04 0.04 0.02 0.01 0.02 0.04 0.03 0.03 0.04 0.07 0.01 0.00 0.00 0.00 0.00 0.00
0.00 0.00 0.00 0.00 0.00 0.00 0.00 0.00 0.00 0.00 0.00 0.00 0.00 0.00 0.00 0.00 0.00 0.00 0.00 0.00 0.00 0.00 0.00 0.00 0.00 0.04 1.21 0.14 0.39 0.30 0.41 0.25 0.38 0.79 0.84 0.26 0.26 0.73 0.73 1.38 1.39 1.17 1.05 1.12 0.69 0.62 0.65 0.45 0.39 0.48 0.50 0.55 0.79 1.05 1.40 0.92 0.65 0.88 0.61 0.26 0.34 0.39 0.21 0.61 0.51 0.23 0.08 0.06 0.03 0.05 0.09 0.09 0.11 0.05 0.08 0.13 0.07 0.04 0.06 0.02 0.07 0.04 0.03 0.03 0.02 0.01 0.05 0.05 0.08 0.02 0.00 0.01 0.00 0.00 0.00 0.00 0.00
0.00 0.00 0.00 0.00 0.00 0.00 0.00 0.00 0.00 0.00 0.00 0.00 0.00 0.00 0.00 0.00 0.00 0.00 0.00 0.00 0.03 0.00 0.00 0.02 0.00 0.04 0.08 0.05 0.18 0.18 0.21 0.28 0.34 0.25 0.23 0.40 0.46 0.53 0.50 0.50 0.72 0.86 0.98 0.95 0.86 0.72 0.53 0.51 0.55 0.53 0.62 0.91 1.23 1.47 1.17 0.82 1.37 1.86 1.09 0.56 0.60 0.67 0.91 0.75 0.27 0.30 0.20 0.14 0.15 0.11 0.10 0.19 0.16 0.28 0.16 0.24 0.08 0.04 0.03 0.10 0.04 0.03 0.03 0.02 0.03 0.02 0.02 0.04 0.00 0.02 0.01 0.00 0.00 0.00 0.00 0.00 0.00
0.00 0.00 0.00 0.00 0.00 0.00 0.00 0.00 0.00 0.00 0.00 0.00 0.00 0.00 0.00 0.00 0.00 0.00 0.00 0.00 0.00 0.00 0.00 0.00 0.01 0.00 0.11 0.14 0.08 0.10 0.30 0.21 0.14 0.26 0.19 0.28 0.37 0.39 0.62 0.80 0.89 1.18 0.85 0.92 0.70 0.88 0.59 0.68 1.26 1.36 0.85 1.08 1.56 1.40 1.34 0.98 0.77 1.18 0.95 1.39 0.78 0.71 0.27 0.26 0.16 0.17 0.21 0.20 0.20 0.16 0.13 0.29 0.63 0.49 0.38 0.49 0.13 0.12 0.02 0.03 0.05 0.07 0.04 0.01 0.01 0.02 0.00 0.02 0.06 0.03 0.02 0.00 0.00 0.00 0.00 0.00 0.00
0.00 0.00 0.00 0.00 0.00 0.00 0.00 0.00 0.00 0.00 0.00 0.00 0.00 0.00 0.00 0.00 0.00 0.00 0.00 0.00 0.00 0.00 0.00 0.03 0.01 0.14 0.11 0.09 0.15 0.11 0.13 0.19 0.23 0.18 0.35 0.25 0.30 0.56 0.96 1.09 1.12 1.00 0.76 0.86 0.78 0.81 0.72 1.10 1.30 1.37 1.27 1.38 0.72 1.61 1.84 1.09 1.47 1.42 1.74 0.84 1.31 0.83 0.46 0.18 0.32 0.35 0.85 0.45 0.21 0.36 0.69 0.65 0.81 0.78 0.78 0.59 0.45 0.17 0.15 0.02 0.03 0.03 0.04 0.01 0.00 0.00 0.00 0.01 0.04 0.05 0.05 0.01 0.00 0.00 0.00 0.01 0.00
0.00 0.00 0.00 0.00 0.00 0.00 0.00 0.00 0.00 0.00 0.00 0.00 0.00 0.00 0.00 0.00 0.00 0.00 0.03 0.01 0.00 0.01 0.03 0.05 0.08 0.12 0.11 0.22 0.11 0.12 0.16 0.31 0.25 0.48 0.44 0.19 0.38 0.38 0.69 0.62 0.54 0.76 0.69 0.96 1.22 1.33 1.77 1.25 1.19 1.28 1.35 1.53 1.39 1.50 1.46 1.04 1.32 1.12 1.22 0.90 0.92 0.88 0.90 0.33 0.38 0.67 0.57 0.64 0.51 0.51 0.87 0.91 0.81 0.89 1.01 0.47 0.37 0.09 0.20 0.04 0.03 0.03 0.01 0.01 0.01 0.02 0.03 0.01 0.01 0.05 0.05 0.03 0.00 0.00 0.01 0.03 0.01
0.00 0.00 0.00 0.00 0.00 0.00 0.00 0.00 0.00 0.00 0.00 0.00 0.00 0.00 0.00 0.00 0.00 0.00 0.00 0.02 0.01 0.03 0.12 0.07 0.11 0.18 0.18 0.21 0.19 0.18 0.22 0.27 0.32 0.75 1.10 0.84 0.56 0.41 0.57 0.73 0.84 0.91 0.80 0.90 0.73 1.02 1.69 2.16 2.25 2.76 1.32 1.13 0.58 1.04 1.60 0.83 0.93 0.85 1.06 0.72 0.46 0.74 0.92 0.71 0.76 0.49 0.72 0.99 1.15 0.98 1.41 1.19 1.06 0.87 0.49 0.55 0.39 0.24 0.21 0.12 0.07 0.03 0.01 0.00 0.00 0.02 0.03 0.01 0.03 0.02 0.13 0.05 0.01 0.02 0.01 0.03 0.02
0.00 0.00 0.00 0.00 0.00 0.00 0.00 0.00 0.00 0.00 0.00 0.00 0.00 0.00 0.00 0.00 0.00 0.00 0.01 0.05 0.03 0.09 0.07 0.14 0.14 0.32 0.19 0.13 0.19 0.22 0.32 0.51 0.95 3.12 2.31 1.00 1.13 0.98 0.96 1.01 1.68 1.75 2.17 1.47 1.32 1.68 1.51 1.78 1.45 2.26 1.88 1.85 1.45 1.44 1.35 1.22 1.03 1.80 1.63 0.97 1.13 0.86 0.77 0.80 0.87 1.23 1.55 1.54 1.04 1.03 0.76 1.41 1.55 1.12 0.56 0.42 0.47 0.26 0.31 0.21 0.21 0.19 0.11 0.10 0.01 0.09 0.10 0.15 0.10 0.23 0.11 0.04 0.02 0.01 0.00 0.01 0.01
0.00 0.00 0.00 0.00 0.00 0.00 0.00 0.00 0.00 0.00 0.00 0.00 0.00 0.00 0.00 0.00 0.00 0.00 0.01 0.03 0.19 0.06 0.02 0.04 0.19 0.16 0.22 0.17 0.21 0.26 0.56 1.12 2.56 4.09 2.25 2.44 3.38 2.01 1.47 1.37 1.57 1.38 1.20 1.17 0.93 1.81 1.62 1.37 1.87 1.89 1.55 1.33 1.02 1.35 1.65 1.09 0.67 1.55 1.60 1.85 1.19 1.21 1.05 1.37 1.36 1.31 1.43 1.31 0.98 0.83 0.99 1.32 1.43 1.05 1.16 0.69 0.52 0.33 0.33 0.20 0.28 0.29 0.14 0.15 0.07 0.09 0.23 0.20 0.15 0.15 0.06 0.07 0.05 0.03 0.02 0.01 0.01
0.00 0.00 0.00 0.00 0.00 0.00 0.00 0.00 0.00 0.00 0.00 0.00 0.00 0.00 0.00 0.00 0.00 0.00 0.00 0.00 0.03 0.02 0.03 0.06 0.12 0.24 0.31 0.20 0.23 0.30 0.63 1.71 3.19 2.27 1.44 2.04 1.79 1.31 0.81 1.22 1.64 1.59 1.62 1.60 1.48 1.15 1.49 1.52 2.08 2.32 1.90 1.39 1.41 1.54 1.62 1.20 1.13 1.99 1.44 1.31 1.29 1.60 1.21 1.42 1.93 1.55 1.63 1.88 1.53 1.49 1.60 1.53 1.24 1.02 0.92 0.85 0.81 0.90 1.09 0.93 0.49 0.70 0.33 0.25 0.08 0.18 0.27 0.19 0.39 0.51 0.53 0.08 0.03 0.05 0.03 0.02 0.00
0.00 0.00 0.00 0.00 0.00 0.00 0.00 0.00 0.00 0.00 0.00 0.00 0.00 0.00 0.00 0.00 0.00 0.00 0.00 0.00 0.00 0.02 0.19 0.01 0.09 0.16 0.19 0.30 0.63 0.47 0.36 2.40 2.40 2.08 1.41 1.07 1.42 1.25 1.16 1.46 1.29 1.25 1.42 1.11 1.45 2.03 1.31 1.00 1.28 1.80 1.60 1.27 1.10 1.51 1.62 1.79 1.80 1.48 1.26 1.61 1.72 0.98 0.99 1.31 1.53 1.53 1.90 1.67 1.10 1.52 1.41 1.58 1.14 1.15 0.94 1.03 0.92 1.25 1.53 0.99 0.87 0.83 0.97 0.60 0.26 0.09 0.18 0.55 0.35 0.29 0.37 0.35 0.16 0.07 0.16 0.03 0.02
0.00 0.00 0.00 0.00 0.00 0.00 0.00 0.00 0.00 0.00 0.00 0.00 0.00 0.00 0.00 0.00 0.00 0.00 0.00 0.00 0.00 0.01 0.02 0.03 0.22 0.31 0.20 0.18 0.28 0.59 0.82 1.26 0.86 1.01 1.07 1.18 1.13 0.99 1.46 1.60 1.43 1.15 1.14 1.32 1.71 1.75 1.16 1.53 1.30 1.24 1.09 1.78 1.58 1.60 1.69 1.54 1.44 1.66 1.30 1.39 1.92 1.87 1.35 1.16 1.69 2.32 1.37 1.36 1.16 0.97 1.18 1.47 1.40 0.77 1.01 1.17 1.49 1.20 1.02 0.81 0.63 0.71 0.77 0.67 0.28 0.30 0.41 0.46 0.41 0.67 0.63 0.33 0.10 0.04 0.03 0.04 0.02
0.00 0.00 0.00 0.00 0.00 0.00 0.00 0.00 0.00 0.00 0.00 0.00 0.00 0.00 0.00 0.00 0.00 0.00 0.02 0.01 0.01 0.01 0.07 0.08 0.44 1.02 0.69 0.20 0.24 0.38 0.62 0.42 0.55 0.45 0.43 0.42 0.66 0.99 1.52 1.43 1.45 0.98 0.84 1.19 1.33 1.47 1.90 1.80 1.19 1.41 1.31 1.49 1.32 1.40 1.60 0.69 1.26 1.52 1.16 0.98 1.94 1.36 1.30 1.11 1.22 1.63 1.62 1.30 1.08 0.95 1.37 1.65 1.36 1.40 1.19 1.10 1.20 1.55 0.80 0.90 0.85 0.81 0.48 0.21 0.12 0.20 0.16 0.50 0.77 0.27 0.40 0.27 0.28 0.27 0.08 0.02 0.02
0.00 0.00 0.00 0.00 0.00 0.00 0.00 0.00 0.00 0.00 0.00 0.00 0.00 0.00 0.00 0.00 0.00 0.04 0.09 0.02 0.02 0.03 0.20 0.32 0.60 0.89 0.87 0.55 0.69 1.18 0.48 0.55 0.59 0.72 0.38 0.52 0.70 1.32 1.41 1.58 1.08 0.96 0.99 1.38 1.30 1.24 1.53 1.58 1.98 1.52 0.88 0.77 0.71 1.07 0.97 0.94 1.23 1.35 1.20 1.14 0.98 0.99 0.73 0.86 1.11 1.09 1.32 1.52 0.94 0.89 0.99 1.47 1.90 1.66 1.22 1.46 0.88 1.06 1.07 0.98 1.14 1.47 0.92 0.52 0.26 0.26 0.13 0.70 0.61 0.62 0.60 0.40 0.30 0.45 0.34 0.05 0.01
0.00 0.00 0.00 0.00 0.00 0.00 0.00 0.00 0.00 0.00 0.00 0.00 0.00 0.00 0.00 0.00 0.00 0.05 0.04 0.28 0.08 0.10 0.26 0.51 0.72 0.84 1.22 0.53 0.82 1.09 1.32 1.25 1.65 1.30 0.93 0.85 0.93 1.17 1.04 1.37 1.21 0.87 0.84 1.19 1.34 1.52 1.70 1.83 1.35 1.08 1.11 1.49 1.42 1.79 1.16 1.17 0.93 0.89 1.13 0.94 0.81 0.85 0.70 0.57 0.72 0.63 0.96 1.43 1.39 1.21 1.21 1.07 1.04 1.51 1.64 1.31 1.03 1.02 1.19 0.92 1.28 1.25 0.74 0.70 0.49 0.51 0.32 0.52 0.65 0.45 0.59 0.47 0.59 0.49 0.24 0.07 0.03
0.00 0.00 0.00 0.00 0.00 0.00 0.00 0.00 0.00 0.00 0.00 0.00 0.00 0.00 0.00 0.00 0.01 0.05 0.21 0.26 0.47 0.42 0.52 0.63 0.89 1.40 1.00 1.31 1.50 0.97 1.64 1.26 1.68 2.09 1.87 2.46 2.05 2.12 1.85 1.26 1.10 1.19 1.18 1.08 1.53 1.72 1.45 1.28 1.23 1.19 1.26 1.24 1.07 0.77 0.75 1.01 0.88 0.74 0.55 0.90 1.03 0.47 0.69 0.54 1.11 0.90 0.86 1.52 1.38 1.25 1.40 0.89 1.09 1.32 1.71 0.86 0.85 0.91 0.89 1.20 0.94 0.84 1.25 1.18 0.69 0.61 0.63 0.44 0.47 0.30 0.39 0.24 0.20 0.12 0.07 0.14 0.02
0.00 0.00 0.00 0.00 0.00 0.00 0.00 0.00 0.00 0.00 0.00 0.00 0.00 0.00 0.00 0.00 0.03 0.02 0.04 0.25 0.21 0.56 0.91 1.25 1.70 1.50 2.64 1.99 1.19 1.24 1.48 2.47 2.48 2.11 2.29 2.13 2.10 2.07 1.23 1.08 1.13 0.95 0.85 0.91 1.08 1.05 0.96 1.70 1.85 1.67 1.44 1.24 0.80 1.03 0.98 0.99 1.14 1.69 1.33 1.04 0.65 0.41 0.53 0.70 0.89 1.35 1.38 1.43 1.36 1.13 1.40 0.96 1.02 1.32 1.10 1.10 0.78 0.71 0.70 0.87 1.36 1.10 1.46 1.16 0.97 0.70 0.37 0.59 0.44 0.33 0.57 0.32 0.30 0.58 0.64 0.43 0.30
0.00 0.00 0.00 0.00 0.00 0.00 0.00 0.00 0.00 0.00 0.00 0.00 0.00 0.00 0.01 0.02 0.02 0.03 0.14 0.24 0.76 1.25 1.41 1.68 2.24 1.31 1.50 1.69 1.51 1.35 1.74 1.58 1.64 1.64 1.56 1.41 1.95 1.21 1.21 1.23 1.11 0.90 0.66 0.78 1.21 1.28 1.13 1.40 1.83 1.86 1.57 1.50 1.15 1.44 0.88 1.11 1.93 1.41 1.61 1.28 0.90 0.37 0.71 0.96 1.49 1.63 0.77 0.86 1.12 1.07 1.47 1.22 1.38 1.42 1.57 1.34 1.32 1.11 0.73 1.13 0.97 1.15 1.27 1.61 1.05 0.71 1.05 1.00 0.71 0.81 0.71 0.46 0.18 0.60 0.58 0.46 0.48
0.00 0.00 0.00 0.00 0.00 0.00 0.00 0.00 0.00 0.00 0.00 0.00 0.00 0.00 0.06 0.02 0.02 0.06 0.35 0.81 1.27 0.85 1.04 1.31 1.52 1.14 1.16 1.46 1.22 1.21 0.88 0.97 0.82 0.84 1.11 1.57 1.18 1.03 0.87 1.25 1.10 0.83 0.85 1.10 0.90 0.96 1.14 1.37 1.17 1.25 1.98 1.91 1.30 0.82 1.17 1.84 1.51 1.02 0.99 1.06 0.93 0.76 0.70 1.12 1.17 1.25 1.13 0.94 0.86 1.02 1.01 1.51 1.41 1.23 1.31 1.46 1.39 0.92 1.05 0.94 0.99 1.21 1.13 1.78 1.38 1.40 1.56 0.90 0.89 1.08 1.13 0.69 0.40 0.38 0.49 0.53 0.98
0.00 0.00 0.00 0.00 0.00 0.00 0.00 0.00 0.00 0.00 0.00 0.00 0.00 0.00 0.04 0.01 0.03 0.14 0.86 1.41 0.85 0.49 1.25 0.89 1.48 1.44 1.62 1.24 2.33 1.22 1.28 0.69 0.28 0.48 0.46 0.78 0.86 1.02 1.59 2.12 1.13 1.28 1.36 1.30 0.97 1.16 1.00 0.70 1.15 1.93 2.37 2.56 1.38 1.42 1.68 1.40 1.17 0.96 1.06 0.75 0.93 0.62 0.46 0.49 0.71 1.23 1.31 1.24 1.18 1.09 2.28 1.52 1.35 1.10 1.15 1.30 1.55 1.16 0.94 0.94 1.38 1.13 1.92 1.69 1.63 1.53 1.21 1.65 1.12 0.81 0.64 0.78 0.94 0.90 0.66 0.83 1.28
0.00 0.00 0.00 0.00 0.00 0.00 0.00 0.00 0.00 0.00 0.00 0.00 0.00 0.00 0.04 0.03 0.00 0.29 1.44 1.10 0.90 0.51 0.53 1.17 0.70 0.41 0.29 0.70 0.50 0.70 0.47 0.35 0.40 0.46 0.70 0.79 0.79 1.13 2.34 1.34 2.27 1.51 1.35 1.96 1.81 1.64 0.94 1.29 1.31 2.19 2.40 1.95 2.09 1.98 2.08 1.63 1.57 1.01 1.30 0.88 0.97 0.84 0.73 0.63 0.92 1.06 0.83 0.98 1.52 1.52 1.06 1.11 1.00 0.99 0.96 1.16 1.41 1.07 1.06 1.25 1.18 1.39 1.74 1.73 2.19 1.39 1.98 1.82 1.37 0.73 0.82 0.73 1.12 1.07 0.94 1.25 1.01
0.00 0.00 0.00 0.00 0.00 0.00 0.00 0.00 0.00 0.00 0.00 0.00 0.00 0.00 0.01 0.06 0.01 0.02 0.03 0.63 0.62 0.81 0.77 1.40 1.31 0.40 0.40 0.53 0.48 0.37 0.50 0.67 0.31 0.57 1.17 1.45 1.36 1.12 0.84 0.84 1.21 1.01 1.24 1.32 1.82 2.05 1.29 1.45 2.15 2.70 2.85 2.28 2.12 2.92 2.56 1.85 1.38 0.94 0.83 1.01 0.87 1.32 0.99 0.52 0.95 1.19 0.91 1.25 1.38 1.72 2.25 1.22 0.77 0.61 0.91 1.34 1.23 0.99 0.93 0.80 1.46 1.62 1.58 1.53 1.12 1.40 1.79 1.12 0.99 1.36 0.84 0.64 0.78 0.78 1.16 1.05 1.05
0.00 0.00 0.00 0.00 0.01 0.00 0.00 0.00 0.00 0.00 0.00 0.00 0.00 0.00 0.02 0.00 0.02 0.03 0.34 0.42 0.40 0.95 1.10 0.98 1.16 1.34 0.77 0.50 0.53 0.54 0.38 0.51 0.56 0.70 0.92 0.88 1.02 0.70 0.55 0.80 1.04 1.47 1.23 2.21 2.25 2.34 2.12 2.27 2.41 3.02 2.90 3.68 3.02 1.90 1.49 1.56 1.35 1.14 1.17 0.92 0.55 0.67 0.59 0.36 0.64 1.21 0.84 1.14 1.38 1.29 1.54 1.57 0.85 0.76 0.76 1.20 1.12 1.03 1.22 1.27 1.33 1.56 1.34 1.26 1.14 0.96 0.90 0.89 1.33 1.58 1.45 0.89 0.67 0.63 0.65 1.09 0.73
0.00 0.00 0.00 0.01 0.00 0.00 0.00 0.00 0.00 0.00 0.00 0.00 0.00 0.01 0.01 0.01 0.01 0.01 0.05 0.05 0.71 0.93 1.30 1.69 1.56 0.74 0.48 0.95 0.39 0.71 0.66 0.61 0.62 0.70 0.79 1.11 1.17 1.17 0.79 0.58 0.63 0.68 1.36 2.21 2.55 2.45 1.93 2.45 2.59 2.19 2.37 2.64 1.94 1.69 1.23 1.28 0.88 0.80 0.64 0.51 0.50 0.57 0.58 0.39 0.38 1.31 0.47 0.73 1.06 0.90 0.66 0.93 1.73 1.00 0.94 0.85 0.63 0.82 1.24 1.18 1.16 1.44 0.86 1.34 0.98 1.01 0.90 0.86 1.12 1.51 1.63 1.84 1.33 1.13 1.58 1.07 1.39
0.00 0.00 0.00 0.00 0.00 0.00 0.00 0.00 0.00 0.00 0.00 0.00 0.00 0.02 0.01 0.03 0.03 0.03 0.04 0.02 0.08 0.25 0.48 0.27 0.72 0.42 0.83 0.77 0.59 0.36 0.95 1.26 0.89 0.48 0.57 0.63 0.76 0.70 0.93 0.79 0.82 0.77 1.82 3.30 2.97 3.23 2.71 2.51 3.06 2.49 2.60 2.67 2.04 1.94 1.32 1.56 1.02 0.81 0.80 0.75 0.47 0.46 0.59 0.59 0.59 0.46 0.57 1.06 1.09 0.48 0.99 0.90 1.27 1.08 0.75 1.01 0.59 0.52 0.82 0.71 0.79 1.18 0.82 0.70 0.70 0.81 1.27 0.97 1.04 1.66 1.42 1.34 1.25 1.26 1.54 1.33 1.92
0.00 0.00 0.00 0.00 0.00 0.00 0.00 0.00 0.00 0.00 0.00 0.00 0.00 0.01 0.02 0.03 0.03 0.05 0.03 0.02 0.07 0.05 0.05 0.09 0.20 0.35 0.39 0.32 0.40 0.94 1.19 0.73 0.58 0.31 0.35 0.69 0.59 0.64 1.00 1.15 1.27 1.77 2.66 2.11 2.42 3.02 3.14 2.76 3.30 3.04 3.47 2.70 1.52 1.24 1.25 1.11 0.87 1.12 1.36 1.07 0.61 0.66 0.62 0.56 0.54 0.63 0.68 1.00 1.04 0.91 0.97 0.68 0.94 0.99 0.79 0.57 0.65 0.57 0.66 0.74 0.85 1.07 0.92 0.75 0.73 0.83 0.95 1.24 0.83 1.21 1.73 1.15 1.72 1.84 1.59 1.68 1.54
0.00 0.00 0.00 0.00 0.00 0.00 0.03 0.00 0.00 0.00 0.00 0.00 0.00 0.04 0.02 0.05 0.05 0.04 0.11 0.08 0.10 0.09 0.11 0.16 0.30 0.49 0.23 0.47 0.48 0.63 0.61 0.34 1.11 0.75 0.47 0.55 0.88 1.40 0.90 1.45 1.38 2.28 3.27 2.76 2.17 2.48 2.68 2.99 3.04 2.14 3.02 1.77 1.45 1.20 1.19 1.17 0.64 0.98 1.00 1.07 1.32 0.56 0.51 0.85 0.71 0.58 0.60 0.42 0.96 0.89 0.77 0.44 0.47 0.62 0.58 0.45 0.51 0.59 0.68 0.62 0.94 1.03 0.92 0.71 0.86 0.84 0.46 0.88 0.82 1.13 1.18 1.12 0.95 1.53 1.13 1.62 1.34
0.00 0.00 0.00 0.00 0.00 0.00 0.00 0.08 0.00 0.00 0.00 0.00 0.01 0.03 0.08 0.04 0.08 0.11 0.14 0.36 0.75 1.01 0.85 0.43 0.33 0.36 0.98 1.22 1.17 0.62 0.70 0.46 0.79 0.95 1.07 1.22 1.62 2.00 1.97 2.03 2.92 3.33 2.73 2.59 2.53 2.46 2.43 2.49 2.90 1.88 2.36 2.06 1.24 1.45 1.35 1.20 1.23 1.37 1.13 1.06 1.25 1.19 1.05 0.65 0.77 0.46 0.38 0.83 0.54 0.78 0.88 0.26 0.42 0.73 0.65 0.66 0.36 0.58 0.42 0.59 0.95 0.82 0.91 0.75 0.63 0.92 0.74 0.68 0.90 1.22 1.06 1.08 0.71 1.02 1.87 0.96 1.11
0.00 0.00 0.00 0.00 0.00 0.00 0.00 0.00 0.00 0.00 0.02 0.00 0.00 0.03 0.12 0.12 0.06 0.11 0.14 0.20 1.00 1.73 1.21 0.31 0.68 0.83 1.12 1.40 1.04 1.73 1.44 0.39 0.78 0.74 0.54 0.42 0.69 0.91 2.20 3.74 2.77 2.25 1.95 3.36 2.90 3.65 3.24 3.14 1.96 1.91 2.71 2.41 1.55 1.35 1.06 1.41 1.02 0.77 0.70 0.62 0.62 0.51 0.56 0.48 0.50 0.42 0.51 0.33 0.55 0.53 0.49 0.51 0.68 0.69 0.84 0.66 0.80 0.78 0.73 0.81 0.97 0.80 0.98 0.77 0.88 1.03 0.82 1.34 0.72 0.86 0.95 0.81 1.33 1.17 1.47 1.04 1.35
0.00 0.01 0.00 0.00 0.00 0.00 0.00 0.00 0.00 0.00 0.03 0.08 0.00 0.03 0.16 0.11 0.25 0.23 0.25 0.22 0.28 0.38 0.67 0.27 0.18 0.71 0.88 0.87 0.74 1.03 1.04 0.64 0.42 0.80 0.81 0.61 1.08 1.46 2.91 2.52 1.93 1.85 2.13 1.42 2.72 3.89 3.99 3.61 1.92 1.50 1.82 2.06 1.51 1.42 1.80 1.83 1.29 0.72 0.64 0.67 0.50 0.42 0.43 0.38 0.26 0.34 0.38 0.47 0.59 0.78 1.16 1.09 1.09 0.75 0.58 0.41 0.58 0.59 0.71 0.60 0.63 0.80 0.55 0.95 0.89 0.98 0.83 0.89 0.61 0.81 0.86 1.22 0.69 0.95 0.98 1.17 1.01
0.01 0.01 0.00 0.00 0.00 0.00 0.00 0.01 0.00 0.02 0.00 0.00 0.00 0.00 0.15 0.12 0.21 0.24 0.28 0.18 0.43 0.39 0.23 0.60 0.97 0.62 1.03 0.95 0.82 0.85 0.52 0.58 0.53 0.86 1.08 1.05 1.18 1.64 1.98 1.99 1.82 1.88 2.29 1.90 4.00 4.05 1.93 1.59 1.51 1.23 1.56 1.61 1.38 1.37 1.67 0.86 0.98 0.90 0.67 0.70 1.13 0.71 0.47 0.46 0.52 0.35 0.55 1.44 1.14 0.71 1.01 1.03 0.75 0.61 0.50 0.62 0.44 0.42 0.71 0.95 0.73 0.87 0.53 0.42 0.74 1.18 1.04 0.71 0.71 0.75 1.11 1.14 0.61 0.75 1.14 1.09 0.60
0.01 0.00 0.00 0.00 0.00 0.00 0.00 0.00 0.01 0.03 0.01 0.11 0.01 0.00 0.03 0.08 0.24 0.66 0.53 0.36 0.76 0.61 0.40 0.64 0.43 0.44 0.88 0.54 0.63 0.70 0.53 0.40 0.86 1.05 1.12 1.20 1.87 1.65 1.25 1.24 1.14 1.36 1.84 2.44 2.29 2.84 2.73 2.17 1.02 1.16 2.22 1.61 1.18 0.62 0.69 0.98 0.90 0.98 0.70 0.97 0.90 0.64 0.48 0.63 0.83 1.29 0.86 1.31 0.49 0.52 0.52 0.59 0.69 0.70 1.01 0.72 1.02 0.96 0.85 0.74 0.77 0.43 0.63 0.57 0.52 0.86 0.79 0.88 0.69 0.68 0.74 0.60 0.56 0.64 0.75 1.07 1.09
0.00 0.00 0.00 0.00 0.00 0.00 0.00 0.01 0.01 0.06 0.01 0.03 0.05 0.08 0.02 0.10 0.25 0.56 0.77 0.27 0.56 0.84 0.88 0.28 0.24 0.23 0.32 0.41 0.53 0.45 0.65 0.60 0.34 0.98 0.42 1.13 1.61 2.52 2.04 1.94 1.54 2.15 1.86 2.16 2.60 4.10 2.62 1.65 2.17 1.84 1.90 1.09 1.15 0.66 0.93 1.60 1.43 1.05 1.11 0.57 0.54 0.65 0.85 0.69 0.51 0.29 0.42 0.34 0.65 0.62 0.68 0.97 0.82 0.80 0.73 0.79 0.98 0.93 0.59 0.44 0.47 0.37 0.50 0.71 1.16 0.57 0.71 0.65 0.54 0.75 0.65 0.57 0.61 0.74 0.84 1.01 1.05
0.00 0.00 0.00 0.00 0.00 0.01 0.01 0.01 0.06 0.06 0.00 0.01 0.02 0.03 0.01 0.13 0.20 0.16 0.52 0.22 0.16 0.11 0.31 0.28 0.31 0.92 0.69 0.73 0.65 0.40 0.45 0.56 0.53 0.97 1.09 0.73 1.13 1.29 1.46 1.37 1.84 1.99 2.50 2.37 3.08 3.59 1.75 1.40 2.24 2.72 2.70 2.25 1.46 2.41 2.09 2.13 1.08 1.23 0.64 0.49 0.53 0.35 0.32 0.35 0.88 0.46 0.37 1.08 0.73 0.67 1.35 1.34 1.41 0.94 0.89 0.70 0.46 0.52 0.48 0.37 0.31 0.38 0.54 0.63 0.40 0.53 0.62 0.51 0.39 0.64 1.04 0.80 0.89 0.80 0.74 0.71 0.71
0.00 0.00 0.02 0.00 0.02 0.00 0.01 0.04 0.02 0.07 0.01 0.04 0.02 0.01 0.02 0.09 0.19 0.14 0.11 0.09 0.06 0.09 0.15 0.16 0.29 0.27 0.48 0.78 0.33 0.34 0.50 0.62 0.74 0.72 0.83 1.10 2.01 1.94 2.11 2.60 2.76 3.13 2.38 1.93 1.59 1.53 1.45 0.95 1.85 2.05 3.33 2.44 2.82 3.25 2.28 1.83 1.41 0.93 1.07 0.72 0.43 0.25 0.29 0.25 0.55 0.39 0.37 0.53 0.17 0.35 0.88 2.22 1.68 1.51 0.75 0.65 0.26 0.21 0.36 0.34 0.32 0.34 0.32 0.37 0.38 0.33 0.69 0.75 0.82 0.70 0.82 0.78 0.72 0.53 0.80 0.71 0.64
0.00 0.00 0.02 0.22 0.22 0.01 0.05 0.05 0.01 0.00 0.01 0.04 0.01 0.03 0.05 0.02 0.29 0.14 0.23 0.22 0.12 0.07 0.11 0.19 0.26 0.37 0.32 0.61 0.34 0.52 0.52 0.92 0.88 1.42 3.20 2.34 1.84 1.41 1.05 1.23 1.27 1.25 1.73 1.69 1.48 1.11 0.69 0.97 1.19 2.54 3.70 2.89 2.85 2.22 1.78 1.52 0.83 0.78 0.85 0.49 0.35 0.13 0.32 0.56 0.99 0.33 0.49 0.39 0.48 0.76 0.71 0.99 1.02 0.67 0.83 0.60 0.42 0.54 0.49 0.46 0.50 0.40 0.47 0.21 0.60 0.57 0.79 0.58 1.02 0.87 0.68 0.91 1.11 0.48 0.50 0.80 1.15
0.00 0.01 0.11 0.06 0.13 0.07 0.02 0.06 0.03 0.08 0.02 0.01 0.05 0.04 0.10 0.28 0.43 0.10 0.30 0.20 0.11 0.12 0.11 0.49 0.80 0.66 0.27 0.54 0.54 0.81 1.47 1.77 1.93 4.31 2.98 2.76 2.03 0.86 1.27 1.32 1.73 1.97 1.78 1.32 1.03 0.66 1.07 1.98 2.84 2.89 3.54 2.04 1.98 2.29 1.01 1.02 0.85 0.66 0.61 0.37 0.19 0.19 0.37 0.42 0.60 0.44 0.48 0.62 0.77 0.96 0.79 0.64 0.88 0.70 0.79 0.82 0.75 0.96 0.90 0.76 1.03 0.73 0.97 0.85 0.64 0.41 0.51 1.04 1.22 1.18 1.33 1.20 0.63 0.39 1.14 1.02 0.88
0.01 0.00 0.01 0.11 0.16 0.08 0.02 0.04 0.08 0.02 0.16 0.03 0.01 0.00 0.05 0.09 1.08 0.33 0.23 0.12 0.07 0.07 0.17 0.22 0.25 0.50 0.84 0.62 0.65 1.12 2.89 3.14 3.66 2.06 1.01 0.70 0.70 0.88 0.87 1.22 1.23 0.74 0.66 0.74 0.55 0.54 0.69 2.40 2.76 3.46 5.13 2.53 2.93 1.57 1.12 1.01 1.05 0.88 0.90 0.73 0.61 0.36 0.43 0.23 0.28 0.25 0.38 0.75 1.14 0.94 0.90 0.88 0.63 0.69 0.85 0.83 0.75 0.74 0.51 1.16 0.72 1.24 0.73 0.39 0.37 0.34 0.43 0.59 0.89 0.74 0.49 0.41 0.71 0.60 0.85 1.04 1.10
0.00 0.00 0.01 0.04 0.02 0.01 0.10 0.34 0.04 0.21 0.12 0.02 0.03 0.06 0.51 0.89 1.16 0.49 0.17 0.10 0.09 0.10 0.27 0.31 0.43 0.39 0.49 1.34 1.99 2.26 2.03 2.00 1.39 0.91 0.45 0.59 0.71 0.49 0.28 0.50 0.33 0.58 0.75 1.04 0.88 1.48 1.99 3.08 2.41 3.01 3.70 2.09 1.81 1.74 1.93 1.64 0.99 0.86 0.85 0.29 0.28 0.41 0.21 0.75 0.47 0.53 0.21 0.41 0.57 0.49 0.35 0.51 0.47 0.65 0.59 0.71 0.97 0.71 0.79 0.83 1.23 0.70 0.55 0.34 0.37 0.65 1.05 1.41 0.56 0.51 0.51 0.64 0.37 0.43 1.01 1.38 0.71
0.17 0.00 0.06 0.03 0.01 0.02 0.02 0.00 0.01 0.00 0.00 0.03 0.02 0.15 0.39 0.39 1.05 0.55 0.41 0.27 0.22 0.11 0.24 0.14 0.44 0.78 0.90 1.64 1.64 1.43 1.33 1.37 1.10 1.57 1.69 1.21 0.66 0.56 0.41 0.79 0.86 0.43 1.02 1.16 1.37 1.69 1.98 1.89 1.78 2.03 3.88 3.33 2.84 2.50 2.48 1.69 1.05 0.70 0.52 0.36 0.33 0.35 0.24 0.51 1.06 0.49 0.10 0.10 0.22 0.43 0.36 0.30 0.51 0.70 0.32 0.28 0.35 0.77 0.60 0.54 0.41 0.73 0.51 0.45 0.43 0.44 0.55 0.80 0.99 0.71 0.69 0.60 0.39 0.24 0.34 0.58 0.51
0.00 0.04 0.04 0.00 0.00 0.02 0.04 0.14 0.06 0.00 0.00 0.05 0.02 0.08 0.38 0.10 0.72 0.82 0.55 0.66 0.36 0.32 0.29 0.25 0.35 0.68 0.91 1.33 0.88 0.67 1.35 1.24 1.12 1.52 1.77 1.86 1.23 1.41 1.54 1.15 0.76 0.80 1.42 1.32 1.09 1.54 1.21 1.32 1.31 2.41 4.46 2.14 3.49 2.90 1.85 1.26 1.16 0.88 0.60 0.45 0.45 0.72 0.60 0.66 0.57 0.22 0.05 0.10 0.10 0.21 0.45 0.13 0.20 0.21 0.25 0.40 0.75 0.95 0.68 0.53 0.54 0.55 0.75 0.55 0.56 0.51 0.77 0.68 0.70 0.73 0.57 0.46 0.37 0.66 0.58 0.48 0.47
0.00 0.05 0.01 0.03 0.06 0.06 0.02 0.00 0.01 0.03 0.01 0.16 0.11 0.13 0.11 0.18 0.73 0.54 0.59 0.36 0.46 0.44 0.24 0.22 0.34 0.69 1.03 1.20 1.10 0.85 1.09 0.91 0.86 0.82 1.13 1.28 0.73 0.49 0.51 0.67 0.86 0.95 0.80 0.51 0.60 0.54 0.44 0.89 1.41 2.18 2.95 2.92 2.54 1.45 1.11 0.77 0.59 0.90 0.63 0.53 0.68 0.60 0.23 0.20 0.25 0.24 0.14 0.14 0.13 0.14 0.20 0.11 0.16 0.45 0.35 0.28 0.32 0.41 0.48 0.32 0.52 0.50 0.49 0.46 0.48 0.44 0.46 0.49 0.62 0.52 0.50 0.51 0.67 0.53 0.65 0.67 0.51
0.00 0.00 0.01 0.00 0.00 0.10 0.09 0.02 0.29 0.01 0.19 0.02 0.28 0.17 0.19 0.28 0.54 0.18 0.30 0.21 0.32 0.28 0.37 0.36 0.47 0.37 0.45 0.41 0.43 0.49 0.59 0.82 0.96 0.89 0.93 1.36 1.43 1.72 1.51 0.89 0.86 0.68 0.65 0.56 0.45 0.35 0.43 0.87 1.53 1.58 1.46 1.45 1.12 1.24 0.72 0.31 0.74 0.57 0.42 0.48 0.34 0.40 0.28 0.30 0.31 0.44 0.21 0.12 0.07 0.14 0.21 0.28 0.37 0.49 0.54 0.28 0.19 0.22 0.25 0.15 0.15 0.29 0.38 0.39 0.37 0.37 0.50 0.72 0.47 0.44 0.50 0.28 0.40 0.60 0.67 0.33 0.51
0.01 0.00 0.01 0.00 0.01 0.08 0.01 0.15 0.05 0.10 0.10 0.07 0.15 0.14 0.52 0.65 0.26 0.29 0.22 0.52 0.40 0.29 0.27 0.40 0.54 0.90 0.68 1.15 1.10 0.84 0.42 0.38 0.72 0.85 0.86 0.70 0.62 0.86 0.55 0.71 0.64 0.98 0.59 0.45 0.55 0.71 0.64 0.62 0.51 0.62 0.53 0.29 0.29 0.93 0.80 0.57 0.27 0.90 0.55 0.60 0.94 0.99 0.58 0.45 0.36 0.30 0.26 0.16 0.13 0.08 0.08 0.13 0.32 0.46 0.50 0.66 0.35 0.22 0.29 0.34 0.28 0.36 0.32 0.25 0.28 0.25 0.31 0.37 0.42 0.37 0.30 0.35 0.32 0.21 0.24 0.37 0.26
0.01 0.01 0.03 0.02 0.08 0.13 0.13 0.08 0.00 0.10 0.03 0.11 0.12 0.25 0.50 0.58 0.19 0.56 0.53 0.35 0.80 0.59 0.61 0.65 0.77 0.63 0.85 0.95 0.68 0.68 1.00 0.79 0.55 0.69 0.60 0.76 1.30 0.81 0.61 0.47 0.47 0.41 0.65 0.53 0.38 0.59 0.55 0.42 0.46 0.62 1.07 0.51 0.41 1.08 1.37 1.14 1.09 1.07 1.10 1.09 1.01 1.21 1.15 0.93 0.57 0.26 0.30 0.15 0.05 0.09 0.17 0.23 0.34 0.60 0.93 0.53 0.37 0.48 0.43 0.32 0.32 0.37 0.36 0.48 0.38 0.21 0.30 0.30 0.26 0.49 0.50 0.46 0.89 0.75 0.49 0.48 0.85